Regional Weather Roundup
Issued by NWS

Home | Current Version | Previous Version | Graphics & Text | Print | Product List | Glossary On
Versions: 1 2 3 4 5 6 7 8 9 10 11 12 13 14 15 16 17 18 19 20 21 22 23 24 25 26 27 28 29 30 31 32 33 34 35 36 37 38 39 40 41 42 43 44 45 46 47 48 49 50
000
ASUS43 KDMX 270508
RWRIA

WEATHER ROUNDUP FOR IOWA
NATIONAL WEATHER SERVICE DES MOINES IA
1200 AM CDT SAT AUG 27 2016

NOTE: "FAIR" INDICATES FEW OR NO CLOUDS BELOW 12,000 FEET WITH NO
SIGNIFICANT WEATHER AND/OR OBSTRUCTIONS TO VISIBILITY.

* - THESE STATIONS ARE NOT NWS STATIONS...THUS NOT UNDER NWS
QUALITY CONTROL.  THEY ALSO DO NOT REPORT WEATHER SUCH
AS PRECIPITATION OR FOG.

IAZ001>003-012>014-020>022-031>034-043>046-270600-
   NORTHWEST IOWA

CITY           SKY/WX    TMP DP  RH WIND       PRES   REMARKS
CARROLL *      CLOUDY    63  61  94 E7        30.07F
CHEROKEE *     CLOUDY    64  61  91 E3        30.08F
DENISON *      CLOUDY    63  61  94 E8        30.04F FOG
LE MARS *      CLOUDY    64  61  88 VRB5      30.07F
ORANGE CITY *  CLOUDY    63  61  94 E7        30.07F
SHELDON *      CLOUDY    63  63 100 SE9       30.07F
SIOUX CITY     CLOUDY    65  61  87 SE5       30.06F
SPENCER        CLOUDY    64  60  87 E8        30.09F
STORM LAKE *   CLOUDY    63  61  94 E9        30.09F
$$

IAZ055>058-069>071-079>083-090>094-270600-
   SOUTHWEST IOWA

CITY           SKY/WX    TMP DP  RH WIND       PRES   REMARKS
ATLANTIC *     CLOUDY    64  64 100 CALM      30.05F
AUDUBON *      CLOUDY    63  61  94 E5        30.07F
CLARINDA *       N/A     68  68 100 MISG      30.06R
COUNCIL BLFS * CLEAR     64  64 100 E7        30.04F
CRESTON *      CLOUDY    66  66 100 E10       30.04F
HARLAN  *      CLOUDY    64  64 100 E6        30.08F
LAMONI         CLOUDY    69  69 100 N6        30.01F
RED OAK *      MOCLDY    66  66 100 NE5       30.04F
SHENANDOAH *   MOCLDY    64 N/A N/A NE5       30.03F
$$

IAZ047>049-059>061-072>074-084-270600-
   CENTRAL IOWA

CITY           SKY/WX    TMP DP  RH WIND       PRES   REMARKS
AMES           CLOUDY    62  62 100 E6        30.06F
ANKENY *         N/A    N/A N/A N/A MISG        N/A
BOONE *        CLOUDY    61  61 100 E12       30.06F
CHARITON *     LGT RAIN  66  66 100 MISG      30.03F
DES MOINES     CLOUDY    65  63  93 NE10      30.04F
GRINNELL*      RAIN      64  62  94 NE8       30.08F
KNOXVILLE *    DRIZZLE   66  66 100 NE9       30.02F
MARSHALLTOWN   LGT RAIN  60  59  96 NE10      30.07F
NEWTON *       CLOUDY    64  64 100 NE7       30.07R
PELLA *        LGT RAIN  65  64  97 N6        30.06F
PERRY *        MOCLDY    63  63  99 E9        30.06F
$$

IAZ004>006-015-016-023>025-035-036-270600-
   NORTH CENTRAL IOWA

CITY           SKY/WX    TMP DP  RH WIND       PRES   REMARKS
ALGONA *       CLOUDY    64  61  88 SE6       30.11S
ESTHERVILLE    CLOUDY    61  61 100 SE7       30.10F
FORT DODGE *   CLOUDY    61  57  88 E6        30.10F
MASON CITY     CLOUDY    62  60  93 SE8       30.13S
FOREST CITY *    N/A    N/A N/A N/A MISG        N/A
WEBSTER CITY * CLOUDY    61  59  94 E8        30.07F
IOWA FALLS *   CLOUDY    60  58  94 E8        30.10F
$$

IAZ007>011-017>019-026>030-037>042-050>054-066-270600-
   NORTHEAST IOWA

CITY           SKY/WX    TMP DP  RH WIND       PRES   REMARKS
CEDAR RAPIDS   RAIN      67  63  87 NE7       30.08R
CHARLES CITY * CLOUDY    61  61 100 SE8       30.13F
CLINTON *      CLOUDY    70  64  81 E10       30.08F
DECORAH *      RAIN      63  63 100 CALM      30.14S
DUBUQUE        CLOUDY    66  61  84 NE8       30.11R
MONTICELLO *   CLOUDY    66  63  88 NE3       30.09R
OELWEIN *      DRIZZLE   61  59  94 NE8       30.13S
WATERLOO       LGT RAIN  60  58  92 NE10      30.10F
$$

IAZ064-065-067-068-078-270600-
   EAST CENTRAL IOWA

CITY           SKY/WX    TMP DP  RH WIND       PRES   REMARKS
DAVENPORT      CLOUDY    70  64  81 SE12      30.10R
IOWA CITY      CLOUDY    69  63  81 NE7       30.09R
MT. PLEASANT * CLOUDY    73  72  98 E6        30.05S
MUSCATINE *    CLOUDY    72  66  83 E9        30.07R
QUAD CITIES    HVY RAIN  69  66  90 E9        30.08R FOG
$$

IAZ062-063-075>077-085>089-095>099-270600-
   SOUTHEAST IOWA

CITY           SKY/WX    TMP DP  RH WIND       PRES   REMARKS
BURLINGTON     CLOUDY    72  71  97 E3        30.05S
FAIRFIELD *    CLOUDY    70  66  88 NE5       30.05S
FORT MADISON * CLOUDY    72  70  94 E5        30.07R
KEOKUK *       CLOUDY    73  70  88 S14G21    30.06R
OSKALOOSA *    RAIN      67  66  96 NE8       30.05F
CENTERVILLE *  RAIN      68  66  94 S7        30.05R
OTTUMWA        HVY RAIN  68  66  93 NE10      30.04F FOG
WASHINGTON *   CLOUDY    70  66  88 NE6       30.07R
$$

ABBREVIATIONS USED IN REMARKS
   TC - TEMPERATURES IN CELSIUS
  WCI - WIND CHILL INDEX
   HX - HEAT INDEX
  VSB - VISIBILITY
$$





USA.gov is the U.S. government's official web portal to all federal, state and local government web resources and services.